Location: Recife
(8.0585°S, 34.8848°W)
Time: 13:19:58
(UTC-03:00)

Vanguard 1 Rocket - Pass Details

Date: 22 April 2026
Orbit: 655 x 4212 km, 34.3° (Epoch: 12 May)

Event Time Altitude Azimuth Distance (km) Brightness Sun altitude
Rises 20:17:02 0° 291° (WNW) 7,342 12.7 -45.3°
Reaches altitude 10° 20:25:47 10° 311° (NW) 6,917 12.3 -47.5°
Maximum altitude 20:38:11 16° 342° (NNW) 6,850 11.9 -50.5°
Drops below altitude 10° 20:51:26 10° 13° (NNE) 7,296 11.9 -53.7°
Sets 21:01:36 0° 34° (NE) 7,901 12.0 -56.2°
